Tracking 20715 objects as of 26-May-2020
HD Live streaming from Space Station
objects crossing your sky now

DELTA 1 R/B(2)

Track DELTA 1 R/B(2) now!
10-day predictions


NORAD ID: 10723
Int'l Code: 1978-012C
Perigee: 235.9 km
Apogee: 12,878.2 km
Inclination: 29.3 °
Period: 243.8 minutes
Semi major axis: 12928 km
RCS: 1.9342 m2 (large)
Launch date: January 26, 1978
Source: United States (US)
Launch site: AIR FORCE EASTERN TEST RANGE (AFETR)

Note: This is a ROCKET BODY
aabbcc
Your satellite tracking list
Your tracking list is empty




NASA's NSSDC Master Catalog

Two Line Element Set (TLE):
1 10723U 78012C   20143.85243877  .00012660  00000-0  47461-3 0  9995
2 10723  29.3496 327.9012 4889475 295.4753  22.3263  5.90613819406686
Source of the keplerian elements: AFSPC